EA1QW Weather Reports


Display with metric or nautical units.
time (UTC)temp
F
wind
direction
speed
MPH
gust
MPH
rain 1hr
in
rain 24hr
in
rain mn
in
humidity
%
barometer
mb
20260504012003 54 271 0.0 0.0 0.00 2.95 0.00 100 1012.5
20260504011511 54 271 0.0 0.0 0.00 2.95 0.00 100 1012.5
20260504011018 54 271 0.0 0.0 0.00 2.95 0.00 100 1012.5
20260504010507 54 271 0.0 0.0 0.00 2.95 0.00 100 1012.5
20260504010013 54 271 0.0 0.0 0.00 2.95 0.00 100 1012.6
20260504005542 54 271 0.0 0.0 0.00 2.95 0.00 100 1012.6
20260504005009 54 271 0.0 0.0 0.00 2.95 0.00 100 1012.5
20260504004517 54 271 0.0 0.0 0.00 2.95 0.00 100 1012.6
20260504004006 54 271 0.0 0.0 0.00 2.95 0.00 100 1012.6
20260504003513 54 271 0.0 0.0 0.00 2.95 0.00 100 1012.6
20260504003019 54 271 0.0 0.0 0.00 2.95 0.00 100 1012.6
20260504002506 54 271 0.0 0.0 0.00 2.95 0.00 100 1012.5
20260504002015 54 271 0.0 0.0 0.00 2.95 0.00 100 1012.5
20260504001503 54 271 0.0 0.0 0.00 2.95 0.00 100 1012.7
20260504001011 54 271 0.0 0.0 0.00 2.95 0.00 100 1012.7
20260504000519 54 271 0.0 0.0 0.00 2.95 0.00 100 1012.7
20260504000008 54 271 0.0 0.0 0.00 2.95 0.59 100 1012.8
20260503235516 54 271 0.0 0.0 0.00 2.95 0.59 100 1012.7
20260503235004 54 271 0.0 0.0 0.00 2.95 0.59 100 1012.8
20260503234512 54 271 0.0 0.0 0.00 2.95 0.59 100 1012.8
20260503234021 54 271 0.0 0.0 0.00 2.95 0.59 100 1012.8
20260503233509 54 271 0.0 0.0 0.00 2.95 0.59 100 1012.9
20260503233015 54 271 0.0 0.0 0.04 2.95 0.59 100 1012.8
20260503232502 54 271 0.0 0.0 0.04 2.95 0.59 100 1012.9
20260503232011 54 271 0.0 0.0 0.04 2.95 0.59 100 1012.8
20260503231519 55 271 0.0 0.0 0.04 2.95 0.59 100 1012.8
20260503231004 55 272 0.0 0.0 0.04 2.95 0.59 100 1012.8
20260503230512 55 271 0.0 0.0 0.04 2.95 0.59 100 1012.9
20260503230040 55 271 0.0 0.0 0.04 2.95 0.59 100 1012.8
20260503225527 55 271 0.0 0.0 0.04 2.95 0.59 100 1012.8
20260503225014 55 271 0.0 0.0 0.04 2.95 0.59 100 1012.8
20260503224522 55 271 0.0 0.0 0.04 2.95 0.59 100 1012.9
20260503224010 55 271 0.0 0.0 0.04 2.95 0.59 100 1012.9
20260503223518 55 271 0.0 0.0 0.04 2.95 0.59 100 1012.9
20260503223007 55 271 0.0 0.0 0.00 2.91 0.58 100 1012.9
20260503222516 55 271 0.0 0.0 0.00 2.91 0.58 100 1012.9
20260503222003 55 271 0.0 0.0 0.00 2.91 0.58 100 1013.0
20260503221512 55 271 0.0 0.0 0.00 2.91 0.58 100 1013.1
20260503221019 55 271 0.0 0.0 0.00 2.91 0.58 100 1013.1
20260503220507 55 271 0.0 0.0 0.00 2.91 0.58 100 1013.1
20260503220015 55 271 0.0 0.0 0.00 2.99 0.58 100 1013.0
20260503215503 55 271 0.0 0.0 0.00 2.99 0.58 100 1013.0
20260503215011 55 271 0.0 0.0 0.00 2.99 0.58 100 1013.1
20260503214540 55 271 0.0 0.0 0.00 2.99 0.58 100 1013.1
20260503214006 55 271 0.0 2.0 0.04 2.99 0.58 100 1013.1
20260503213514 55 271 0.0 2.0 0.04 2.99 0.58 100 1013.1
20260503213002 55 271 0.0 0.0 0.04 2.99 0.58 100 1013.1
20260503212510 55 271 0.0 4.0 0.04 2.99 0.58 100 1013.1
20260503212019 55 271 1.0 4.0 0.08 2.99 0.58 100 1013.0
20260503211508 55 271 0.0 1.0 0.08 2.99 0.58 100 1013.0
20260503211034 55 272 0.0 0.0 0.08 2.99 0.58 100 1012.9
20260503210521 55 271 0.0 3.0 0.08 2.99 0.58 100 1012.9
20260503210009 55 271 0.0 3.0 0.08 3.19 0.58 100 1012.8
20260503205518 55 271 0.0 2.0 0.08 3.19 0.58 100 1012.8
20260503205026 55 271 1.0 4.0 0.08 3.19 0.58 100 1012.9
20260503204513 55 271 1.0 4.0 0.08 3.19 0.58 100 1012.9
20260503204005 55 271 1.0 7.0 0.04 3.15 0.57 100 1012.7
20260503203513 55 271 2.0 8.0 0.08 3.15 0.57 100 1012.7
20260503203018 56 274 4.0 8.0 0.08 3.15 0.57 100 1012.7
20260503202507 56 280 3.0 5.0 0.08 3.15 0.57 100 1012.6
20260503202035 56 285 2.0 8.0 0.04 3.11 0.57 100 1012.5
20260503201502 56 285 3.0 8.0 0.04 3.11 0.57 100 1012.5
20260503201010 56 288 2.0 3.0 0.08 3.11 0.57 100 1012.4
20260503200519 56 288 1.0 3.0 0.08 3.11 0.57 100 1012.4
20260503200006 56 288 0.0 2.0 0.08 3.11 0.57 100 1012.3
20260503195535 56 288 0.0 2.0 0.08 3.11 0.57 100 1012.3
20260503195040 56 288 0.0 3.0 0.08 3.11 0.57 100 1012.2
20260503194507 56 288 1.0 3.0 0.12 3.11 0.57 100 1012.2
20260503194016 56 288 0.0 2.0 0.12 3.11 0.57 100 1012.2
20260503193524 56 288 0.0 0.0 0.12 3.07 0.56 100 1012.1
20260503193012 56 288 0.0 0.0 0.20 3.07 0.56 100 1012.1
20260503192539 56 288 0.0 0.0 0.20 3.07 0.56 100 1012.0
20260503192006 56 288 0.0 3.0 0.20 3.07 0.56 100 1012.0
20260503191514 56 288 1.0 3.0 0.20 3.07 0.56 100 1011.9
20260503191019 56 289 0.0 3.0 0.16 3.03 0.55 100 1011.9
20260503190507 56 288 0.0 2.0 0.16 3.03 0.55 100 1011.9
20260503190012 56 288 0.0 0.0 0.16 3.03 0.55 100 1011.8
20260503185541 56 288 0.0 0.0 0.16 3.03 0.55 100 1011.8
20260503185008 56 288 0.0 2.0 0.16 3.03 0.55 100 1011.7
20260503184517 56 288 0.0 4.0 0.16 2.99 0.54 100 1011.7
20260503184004 56 288 0.0 0.0 0.16 2.99 0.54 100 1011.7
20260503183512 56 288 0.0 0.0 0.12 2.95 0.54 100 1011.7
20260503183017 56 288 0.0 0.0 0.04 2.87 0.52 100 1011.7
20260503182525 56 288 0.0 0.0 0.08 2.87 0.52 100 1011.7
20260503182013 56 288 0.0 0.0 0.16 2.87 0.52 100 1011.7
20260503181520 56 288 0.0 0.0 0.28 2.87 0.52 100 1011.7
20260503181009 56 288 0.0 4.0 0.35 2.87 0.52 100 1011.7
20260503180517 56 288 0.0 4.0 0.39 2.87 0.52 100 1011.7
20260503180022 56 288 1.0 3.0 0.47 2.87 0.52 100 1011.7
20260503175510 56 288 0.0 5.0 0.55 2.87 0.52 100 1011.7
20260503175018 56 288 1.0 7.0 0.63 2.87 0.52 100 1011.7
20260503174527 56 288 2.0 7.0 0.71 2.83 0.51 99 1011.7
20260503174011 56 287 1.0 5.0 0.79 2.83 0.51 99 1011.6
20260503173519 56 287 2.0 5.0 0.87 2.83 0.51 99 1011.6
20260503173007 56 286 1.0 8.0 0.91 2.83 0.51 99 1011.6
20260503172516 56 286 2.0 8.0 0.91 2.80 0.50 99 1011.6
20260503172004 57 290 2.0 5.0 0.83 2.72 0.49 99 1011.5
20260503171512 57 292 1.0 3.0 0.71 2.60 0.46 99 1011.6
20260503171020 57 292 0.0 0.0 0.67 2.52 0.45 99 1011.4
20260503170508 57 292 0.0 3.0 0.71 2.48 0.44 99 1011.4
20260503151008 58 307 3.0 6.0 0.12 1.46 0.21 96 1011.0
20260503150517 58 315 1.0 5.0 0.20 1.46 0.21 96 1010.9
20260503131015 61 330 4.0 12.0 0.00 1.46 0.01 83 1011.1
20260503130507 62 339 3.0 8.0 0.00 1.46 0.01 84 1011.1
20260503110511 62 314 6.0 14.0 0.00 1.46 0.01 81 1011.8
20260503081537 59 317 0.0 1.0 0.00 1.46 0.01 100 1011.4
20260503081024 59 317 0.0 0.0 0.00 1.46 0.01 100 1011.5
20260503080510 59 317 0.0 0.0 0.00 1.46 0.01 100 1011.6
20260503072514 56 317 0.0 0.0 0.00 1.46 0.01 100 1011.6
20260503072003 56 317 0.0 0.0 0.00 1.46 0.01 100 1011.5
20260503071510 56 317 0.0 0.0 0.00 1.46 0.01 100 1011.4
20260503071038 56 317 0.0 0.0 0.00 1.46 0.01 100 1011.4
20260503070505 56 317 0.0 0.0 0.00 1.46 0.01 100 1011.3
20260503055003 55 317 0.0 0.0 0.00 1.46 0.01 100 1011.1
20260503054512 55 317 0.0 0.0 0.00 1.46 0.01 100 1011.2
20260503054016 55 317 0.0 0.0 0.00 1.46 0.01 100 1011.2
20260503053508 55 317 0.0 0.0 0.00 1.46 0.01 100 1011.3
20260503053017 55 317 0.0 0.0 0.00 1.46 0.01 100 1011.2
20260503052504 55 317 0.0 0.0 0.00 1.46 0.01 100 1011.1
20260503052012 55 317 0.0 0.0 0.00 1.46 0.01 100 1011.2
20260503051520 55 317 0.0 0.0 0.00 1.46 0.01 100 1011.2
20260503051009 55 317 0.0 0.0 0.00 1.46 0.01 100 1011.1
20260503050517 55 317 0.0 0.0 0.00 1.46 0.01 100 1011.2
20260503050005 55 317 0.0 0.0 0.00 1.46 0.01 100 1011.2
20260503045532 55 317 0.0 0.0 0.00 1.46 0.01 100 1011.2
20260503045020 55 317 0.0 0.0 0.00 1.46 0.01 100 1011.2
20260503044527 55 317 0.0 2.0 0.00 1.46 0.01 100 1011.3
20260503044014 55 317 1.0 2.0 0.00 1.46 0.01 100 1011.3
20260503043520 55 317 0.0 2.0 0.00 1.46 0.01 100 1011.3
20260503043029 55 317 1.0 3.0 0.00 1.46 0.01 99 1011.3
20260503042532 55 317 1.0 2.0 0.00 1.46 0.01 99 1011.2
20260503042019 55 317 1.0 2.0 0.00 1.46 0.01 99 1011.2
20260503041507 55 317 0.0 0.0 0.00 1.46 0.01 99 1011.2
20260503041035 55 317 0.0 0.0 0.00 1.46 0.01 99 1011.3
20260503040542 55 317 0.0 0.0 0.00 1.46 0.01 99 1011.3
20260503040029 55 317 0.0 0.0 0.00 1.46 0.01 99 1011.2
20260503035517 55 317 0.0 0.0 0.00 1.46 0.01 99 1011.2
20260503035005 55 317 0.0 0.0 0.00 1.46 0.01 99 1011.2
20260503034514 55 317 0.0 0.0 0.00 1.46 0.01 99 1011.2
20260503034022 56 317 0.0 0.0 0.00 1.46 0.01 99 1011.3
20260503033531 56 317 0.0 0.0 0.00 1.46 0.01 99 1011.2
20260503033014 56 317 0.0 0.0 0.00 1.46 0.01 99 1011.2
20260503032522 56 317 0.0 0.0 0.00 1.46 0.01 99 1011.1
20260503032010 56 317 0.0 0.0 0.00 1.46 0.01 99 1011.2
20260503031518 56 317 0.0 0.0 0.00 1.46 0.01 99 1011.2
20260503031006 56 317 0.0 0.0 0.04 1.46 0.01 99 1011.3
20260503030534 56 317 0.0 0.0 0.04 1.46 0.01 99 1011.2
20260503030041 57 317 0.0 0.0 0.04 1.46 0.01 99 1011.1
20260503025528 57 317 0.0 0.0 0.04 1.46 0.01 99 1011.1
20260503025012 57 317 0.0 0.0 0.04 1.46 0.01 99 1011.1
20260503024540 57 317 0.0 0.0 0.04 1.46 0.01 99 1011.1
20260503024028 57 317 0.0 0.0 0.04 1.46 0.01 99 1011.2
20260503023515 57 317 0.0 0.0 0.04 1.46 0.01 99 1011.3
20260503023003 57 317 0.0 0.0 0.04 1.46 0.01 99 1011.3
20260503022510 57 317 0.0 0.0 0.04 1.46 0.01 99 1011.3
20260503022017 57 317 0.0 0.0 0.04 1.46 0.01 99 1011.3
20260503021505 57 317 0.0 0.0 0.00 1.42 0.00 99 1011.4
20260503021022 57 317 0.0 0.0 0.00 1.42 0.00 99 1011.4
20260503020510 57 317 0.0 0.0 0.00 1.42 0.00 99 1011.6
20260503020016 57 317 0.0 0.0 0.00 1.42 0.00 99 1011.5
20260503015504 57 317 0.0 0.0 0.00 1.42 0.00 99 1011.6
20260503015012 57 317 0.0 0.0 0.00 1.42 0.00 99 1011.6
20260503014520 57 317 0.0 0.0 0.00 1.42 0.00 99 1011.7
20260503014028 57 317 0.0 0.0 0.00 1.42 0.00 98 1011.7
20260503013512 57 317 0.0 0.0 0.00 1.42 0.00 98 1011.8
20260503013036 57 317 0.0 0.0 0.00 1.42 0.00 98 1011.8
20260503012524 57 317 0.0 0.0 0.00 1.42 0.00 98 1011.8